Temperature
10 9 9 8 8 8 7 7 7 7 7 6 6 5 5 5 4 4 3 3 3 3 2 2 2 1 1 -0 -1 -2 -3 -4 -5 -4 -4 -4 -3 -3 -3 -3 -3 -3 -3
9 8 8 8 7 7 7 7 7 6 6 6 5 5 5 4 4 3 3 3 2 2 2 2 1 1 0 -0 -1 -2 -3 -4 -5 -5 -4 -4 -4 -4 -3 -3 -4 -4 -4
8 7 7 7 7 6 6 6 6 6 5 5 5 4 4 4 3 3 3 2 2 2 1 1 1 0 0 -0 -1 -2 -3 -4 -5 -5 -5 -5 -5 -5 -4 -4 -4 -4 -4
7 7 6 6 6 6 6 5 5 5 4 4 4 4 3 3 3 3 2 2 1 1 1 0 0 -0 -0 -1 -1 -2 -3 -4 -5 -6 -6 -6 -6 -5 -5 -5 -5 -4 -4
6 6 6 6 5 5 5 4 4 4 3 3 3 3 2 2 2 2 1 1 1 0 0 -0 -0 -1 -1 -2 -2 -3 -4 -5 -5 -6 -7 -7 -6 -6 -6 -5 -5 -5 -5
5 5 5 5 5 4 4 3 3 3 2 2 2 1 1 1 1 1 0 -0 -0 -1 -1 -1 -1 -2 -2 -3 -4 -4 -5 -5 -6 -6 -7 -7 -6 -6 -6 -6 -6 -6 -7
5 4 4 4 4 3 3 2 2 1 1 1 1 0 0 0 0 0 -0 -1 -1 -1 -1 -1 -2 -2 -3 -3 -4 -4 -4 -5 -6 -6 -6 -6 -6 -6 -6 -6 -6 -7 -7
4 4 3 3 2 2 1 1 1 0 0 -0 -0 -0 -1 -0 -0 -1 -1 -1 -2 -2 -2 -2 -2 -3 -3 -4 -4 -5 -5 -5 -5 -5 -6 -6 -6 -6 -6 -6 -6 -7 -7
3 3 2 1 1 1 0 0 -0 -0 -1 -1 -1 -1 -1 -1 -1 -1 -2 -2 -2 -2 -2 -2 -3 -3 -3 -4 -5 -5 -6 -6 -6 -6 -6 -6 -6 -6 -6 -7 -7 -7 -8
2 1 1 0 0 -0 -0 -1 -1 -1 -1 -1 -2 -2 -2 -2 -2 -2 -2 -3 -3 -3 -3 -3 -3 -4 -4 -5 -5 -6 -6 -6 -6 -6 -6 -6 -6 -6 -6 -6 -7 -7 -8
1 0 0 -0 -1 -1 -1 -1 -2 -2 -2 -2 -2 -2 -2 -2 -2 -3 -3 -3 -4 -4 -4 -4 -4 -4 -5 -5 -5 -6 -6 -6 -6 -7 -6 -6 -6 -6 -6 -6 -7 -7 -8
-0 -0 -1 -1 -1 -2 -2 -2 -2 -3 -3 -3 -3 -3 -3 -3 -3 -3 -3 -4 -4 -4 -4 -4 -4 -5 -5 -5 -5 -6 -6 -6 -6 -6 -7 -6 -6 -6 -6 -6 -7 -7 -7
-1 -1 -2 -2 -2 -2 -3 -3 -3 -3 -3 -4 -4 -4 -3 -3 -3 -3 -4 -4 -4 -4 -4 -5 -5 -5 -5 -5 -5 -6 -6 -6 -6 -6 -6 -6 -6 -6 -6 -7 -7 -7 -7
-2 -2 -2 -3 -3 -3 -3 -3 -4 -4 -4 -4 -4 -4 -4 -4 -4 -4 -4 -4 -4 -4 -5 -5 -5 -5 -5 -6 -6 -6 -6 -6 -6 -6 -6 -6 -6 -7 -7 -7 -7 -8 -8
-3 -3 -3 -3 -3 -4 -4 -4 -4 -4 -4 -4 -4 -4 -4 -4 -4 -4 -4 -4 -4 -5 -5 -5 -5 -5 -6 -6 -6 -6 -6 -6 -6 -6 -6 -6 -7 -7 -7 -7 -8 -8 -8
-4 -4 -4 -4 -4 -4 -5 -5 -4 -5 -4 -4 -4 -4 -5 -5 -5 -5 -5 -5 -5 -5 -5 -5 -6 -6 -6 -6 -6 -6 -6 -6 -6 -6 -6 -7 -7 -7 -7 -8 -8 -8 -9
-4 -4 -5 -5 -5 -5 -5 -5 -5 -5 -4 -4 -5 -5 -5 -5 -5 -5 -5 -5 -5 -5 -6 -6 -6 -6 -6 -6 -6 -6 -6 -6 -6 -6 -7 -7 -7 -8 -8 -8 -8 -9 -9
-5 -5 -5 -5 -6 -6 -6 -6 -6 -6 -5 -5 -5 -5 -5 -5 -5 -5 -5 -5 -5 -5 -6 -6 -6 -6 -6 -6 -6 -6 -6 -7 -7 -7 -7 -7 -7 -8 -8 -9 -9 -9 -10
-5 -5 -6 -6 -6 -6 -6 -6 -6 -6 -6 -6 -5 -5 -5 -6 -6 -6 -6 -6 -6 -6 -6 -6 -6 -6 -6 -6 -6 -7 -7 -7 -7 -7 -7 -7 -8 -8 -9 -9 -9 -10 -10
-6 -6 -6 -6 -6 -6 -6 -6 -6 -6 -6 -6 -6 -6 -6 -6 -6 -6 -6 -6 -6 -6 -6 -6 -6 -7 -7 -7 -7 -7 -7 -7 -7 -7 -7 -8 -8 -8 -9 -9 -10 -10 -10
-6 -6 -6 -6 -6 -6 -6 -6 -6 -6 -6 -6 -6 -6 -6 -6 -6 -6 -6 -6 -6 -7 -7 -7 -7 -7 -7 -7 -7 -7 -7 -7 -7 -8 -8 -8 -8 -9 -9 -10 -10 -10 -11
-6 -6 -6 -6 -6 -6 -6 -6 -6 -6 -6 -6 -6 -6 -6 -6 -6 -6 -7 -7 -7 -7 -7 -7 -7 -7 -7 -7 -7 -7 -7 -8 -8 -8 -8 -9 -9 -9 -10 -10 -10 -11 -11
-6 -6 -6 -6 -6 -6 -6 -6 -6 -6 -6 -6 -6 -6 -6 -7 -7 -7 -7 -7 -7 -7 -7 -7 -7 -7 -7 -7 -7 -8 -8 -8 -8 -8 -9 -9 -9 -10 -10 -10 -11 -11 -11
-6 -6 -6 -6 -6 -6 -6 -6 -6 -6 -6 -7 -7 -7 -7 -7 -7 -7 -7 -7 -7 -7 -7 -7 -7 -7 -7 -8 -8 -8 -8 -8 -9 -9 -9 -9 -10 -10 -10 -11 -11 -11 -11
-7 -6 -6 -6 -6 -6 -6 -6 -6 -6 -7 -7 -7 -7 -7 -7 -7 -7 -7 -7 -7 -7 -7 -7 -7 -7 -8 -8 -8 -8 -8 -9 -9 -9 -9 -10 -10 -10 -10 -11 -11 -11 -11
-7 -7 -7 -7 -6 -7 -7 -7 -7 -7 -7 -7 -8 -8 -8 -8 -8 -8 -8 -7 -7 -8 -8 -8 -8 -8 -8 -8 -8 -8 -9 -9 -9 -9 -10 -10 -10 -10 -11 -11 -11 -11 -11
Wind_Speed
6 6 6 7 7 8 8 10 11 11 11 12 13 13 14 15 16 16 18 17 19 20 18 19 21 17 15 13 13 13 15 14 20 11 7 8 10 11 11 14 17 18 20
6 6 7 7 7 8 9 10 10 11 11 12 12 13 14 14 14 16 18 18 19 20 20 19 20 17 19 15 15 16 16 15 17 18 9 9 12 10 9 9 11 16 17
6 6 7 8 8 9 10 10 10 10 11 11 11 12 13 13 14 15 17 17 18 19 19 19 20 18 19 16 17 16 15 15 15 16 13 10 10 8 9 9 11 9 15
6 7 8 9 10 10 10 10 11 11 11 12 12 13 13 13 13 14 15 16 17 17 17 18 18 19 20 18 17 17 16 15 14 14 14 10 10 7 7 9 10 9 12
7 8 9 10 10 10 11 11 11 11 12 12 12 13 12 12 12 13 13 15 15 16 16 17 18 22 25 21 17 14 14 14 14 14 15 12 12 9 9 8 11 9 10
8 10 10 11 11 11 11 11 11 12 12 12 13 14 14 12 20 24 19 13 14 15 16 16 17 21 26 31 32 29 23 18 16 16 15 16 14 13 11 10 10 9 10
9 10 11 11 12 12 12 12 12 12 12 13 13 13 14 17 25 26 26 17 13 14 15 14 14 15 21 15 23 31 29 33 29 19 18 18 15 13 12 13 13 12 13
10 11 11 11 13 13 12 13 13 12 12 12 13 13 14 17 25 26 26 18 13 13 14 14 14 14 15 16 14 15 16 17 21 19 17 17 15 12 12 14 13 13 11
11 12 12 12 13 13 14 14 13 12 12 12 12 13 14 16 23 25 25 12 11 12 12 13 14 13 21 26 17 15 15 15 23 29 27 23 26 27 20 12 12 11 13
13 13 13 12 13 14 15 14 13 12 13 13 13 12 14 15 21 24 24 10 11 11 9 11 19 19 21 24 16 14 17 14 12 14 18 21 19 20 26 17 12 12 10
13 13 13 13 13 14 14 13 13 13 13 13 14 13 13 15 19 23 23 11 9 10 9 8 10 21 23 24 22 15 19 15 11 12 12 12 11 10 11 12 11 11 12
13 14 14 14 13 13 14 14 13 13 14 14 13 13 10 11 15 18 22 21 18 11 10 8 10 20 22 23 20 20 24 21 11 11 11 11 11 11 10 10 11 12 12
14 14 14 14 13 12 13 15 14 12 12 12 12 12 12 9 11 20 21 22 22 13 9 14 16 20 20 16 20 23 19 13 11 11 12 11 9 8 7 7 7 8 9
16 15 14 14 14 13 11 11 11 12 12 12 12 13 12 10 9 8 9 11 14 13 10 13 17 18 15 14 14 13 10 9 10 10 9 7 6 6 7 7 7 7 7
15 14 14 13 14 13 12 11 13 12 14 15 13 12 13 14 14 20 15 9 7 10 8 6 6 6 7 7 7 7 7 7 9 7 7 7 7 7 7 7 6 6 7
14 13 12 12 12 12 13 14 18 19 24 25 23 21 16 20 25 25 23 21 19 16 11 6 7 7 7 8 7 7 7 7 7 6 7 7 7 8 7 6 6 7 8
15 15 12 12 12 13 13 14 15 16 20 21 22 23 22 24 24 23 21 19 17 15 9 6 6 6 7 7 7 7 7 7 7 7 7 7 7 7 6 6 6 7 8
14 16 16 12 12 13 13 13 13 14 15 12 14 20 22 22 22 20 18 14 9 7 5 5 6 6 6 6 7 7 6 6 6 6 7 7 7 7 7 7 7 7 7
14 12 12 12 12 12 12 13 12 13 13 13 11 13 17 18 19 17 14 7 6 6 5 5 5 5 5 6 6 6 6 6 6 6 6 7 7 6 6 7 7 10 9
12 20 19 14 12 12 12 12 12 12 12 12 11 11 10 11 8 8 6 5 5 6 5 5 5 5 5 5 5 5 6 6 6 6 6 6 6 6 7 7 7 7 7
12 15 21 16 12 12 12 12 12 12 12 12 11 12 17 10 9 8 6 5 5 6 5 5 4 4 5 4 5 6 6 6 6 6 6 6 6 6 6 6 7 7 7
12 12 12 13 13 12 13 11 12 12 12 12 11 12 17 9 7 7 6 6 6 5 4 4 4 4 4 5 5 5 6 6 6 6 6 5 5 6 6 6 7 7 8
13 14 14 13 12 15 15 11 11 11 11 11 11 10 8 7 7 6 6 5 5 4 3 3 3 3 3 4 4 5 6 6 6 6 6 6 6 6 6 7 8 8 8
13 13 14 13 12 11 12 12 11 11 11 10 9 8 8 7 7 6 5 5 4 3 3 2 3 4 5 4 4 4 5 5 5 6 8 7 7 6 6 7 8 9 9
12 13 13 12 12 12 12 12 11 10 10 9 9 8 7 7 6 5 4 4 3 3 3 2 2 3 5 5 5 5 7 9 8 6 6 7 7 8 8 8 8 8 9
12 13 12 11 11 11 11 11 10 10 9 9 8 7 7 6 5 5 4 3 3 3 3 2 3 3 4 4 6 8 9 10 11 11 6 6 7 7 7 7 9 9 9
Wind_Direction
290 281 278 277 274 270 266 266 266 267 264 260 257 252 248 245 241 239 239 236 236 237 234 233 235 230 231 228 226 225 228 229 248 247 209 209 208 220 232 230 232 240 248
290 288 284 284 286 282 276 273 271 271 269 265 263 259 256 252 245 241 243 240 238 239 237 235 236 231 230 229 227 228 229 227 237 249 229 216 220 219 222 227 236 240 241
293 293 294 293 290 285 282 280 278 275 275 271 266 263 261 257 252 246 245 244 241 239 237 235 235 230 232 229 227 229 229 230 231 241 242 227 229 225 222 233 236 237 243
298 298 296 293 290 288 287 285 283 280 279 276 271 267 264 261 256 252 248 247 245 243 239 236 235 230 231 229 228 228 226 227 227 234 240 234 234 222 215 233 243 237 244
305 302 296 294 292 291 289 287 285 281 279 276 276 273 268 265 261 256 251 250 249 248 245 240 237 236 235 233 232 227 222 226 227 232 237 236 234 226 226 222 238 245 246
303 298 297 297 297 293 291 289 286 283 280 278 276 275 274 272 275 276 271 253 248 247 247 244 241 245 246 245 243 237 225 222 224 227 232 233 232 228 227 226 232 240 252
298 297 298 297 296 293 291 290 287 286 283 281 277 274 274 275 281 284 282 275 254 247 244 243 243 240 243 239 245 246 242 234 226 222 230 231 229 224 220 228 229 232 243
299 297 296 295 294 293 292 290 288 286 284 283 281 277 276 278 284 287 286 280 267 252 242 238 238 237 233 234 231 234 238 240 238 233 228 229 228 222 215 223 232 240 250
300 297 295 294 294 295 294 292 291 291 290 285 283 282 282 284 288 290 289 277 269 259 246 237 237 237 242 243 236 233 236 237 243 242 240 235 230 230 224 224 227 235 249
299 296 295 293 292 294 294 293 292 290 290 290 287 283 281 281 286 292 290 278 272 267 254 240 245 245 246 246 238 231 235 234 227 239 245 249 244 237 235 226 221 234 249
297 296 295 292 291 292 292 291 292 293 292 291 289 286 282 282 288 291 291 284 268 267 262 248 240 251 252 247 242 234 238 233 220 224 230 235 237 235 233 227 218 223 238
298 297 295 294 294 297 294 294 293 293 294 294 294 293 286 282 287 290 292 290 284 270 263 251 243 252 252 250 247 240 239 240 227 219 224 227 227 228 226 222 221 222 229
300 299 298 297 295 293 293 295 297 295 294 295 294 294 294 285 283 291 294 294 291 283 266 261 258 257 254 252 250 246 242 236 223 219 220 221 219 215 208 210 218 226 235
301 302 300 300 300 297 292 292 294 294 294 294 294 294 295 293 286 280 276 282 284 284 279 270 267 264 254 244 245 249 238 228 220 220 215 208 196 197 206 207 217 220 237
301 300 301 299 299 300 296 293 292 284 285 291 292 292 297 298 295 296 294 279 267 264 265 254 247 244 239 232 228 228 226 223 223 208 200 197 200 206 212 204 208 213 231
305 304 303 302 302 300 301 301 294 291 295 295 294 294 293 292 297 300 301 299 292 284 278 260 249 239 234 227 220 216 215 214 211 206 199 200 205 210 214 208 208 220 238
301 303 303 302 302 302 302 303 304 304 300 298 298 300 300 300 301 302 301 299 294 286 273 258 248 238 229 218 213 212 213 210 203 202 203 202 204 207 212 217 219 228 240
301 303 305 301 300 299 299 300 301 303 306 303 301 302 304 305 305 304 302 302 292 282 261 253 244 235 224 215 212 210 209 203 200 202 202 202 203 207 215 221 223 229 242
303 303 302 300 299 298 299 298 296 295 297 301 302 303 306 308 307 303 302 289 280 274 259 246 240 233 224 217 212 205 202 203 199 197 201 201 202 206 218 223 227 243 250
303 305 310 305 302 301 300 298 297 297 298 299 300 301 305 304 299 298 291 277 274 270 260 250 242 232 223 216 209 202 201 203 201 202 205 205 204 207 219 225 230 240 247
304 305 307 306 300 299 298 298 298 298 299 299 299 300 306 303 298 296 291 282 274 267 257 248 243 230 218 208 203 203 203 206 204 203 205 207 206 213 220 227 235 242 251
303 302 302 300 300 300 300 298 297 297 298 299 300 301 307 304 297 294 288 284 278 267 253 242 233 221 209 203 201 202 206 209 208 205 206 207 211 219 223 231 239 246 253
302 303 304 302 301 303 304 299 297 297 298 298 298 300 304 304 301 296 291 289 283 271 254 236 228 219 214 208 202 201 207 213 209 202 205 212 217 222 227 235 242 249 255
306 306 305 304 304 302 301 300 299 299 299 300 303 304 303 301 298 297 295 292 284 273 258 245 233 223 219 217 215 212 213 215 204 205 206 213 221 229 234 241 246 250 255
308 307 306 305 304 303 303 302 303 304 305 306 305 304 302 302 300 300 297 292 285 278 269 255 241 232 227 226 223 224 232 235 233 221 207 214 224 230 238 244 249 253 256
309 308 307 306 306 306 305 305 307 308 306 306 306 304 303 304 303 303 301 296 291 283 274 266 255 251 245 238 235 241 248 249 248 246 230 220 225 235 239 246 250 253 258
Height
1474 1471 1468 1464 1461 1457 1454 1450 1446 1442 1438 1435 1431 1428 1425 1422 1420 1418 1415 1414 1412 1410 1410 1409 1407 1409 1410 1411 1412 1413 1414 1414 1410 1408 1414 1418 1421 1424 1426 1427 1427 1428 1428
1469 1466 1462 1459 1455 1451 1447 1443 1438 1434 1430 1426 1422 1418 1414 1412 1409 1407 1403 1402 1400 1397 1397 1397 1396 1398 1397 1399 1400 1400 1401 1402 1401 1398 1402 1406 1409 1412 1414 1416 1417 1417 1417
1464 1460 1456 1452 1448 1443 1439 1434 1430 1425 1420 1416 1412 1408 1404 1401 1398 1395 1392 1389 1387 1385 1385 1384 1384 1385 1384 1386 1387 1387 1388 1390 1390 1390 1390 1394 1397 1400 1402 1403 1405 1406 1406
1458 1454 1450 1445 1441 1435 1431 1426 1421 1416 1411 1407 1402 1398 1394 1390 1387 1383 1380 1377 1374 1373 1372 1371 1371 1372 1371 1373 1374 1374 1376 1378 1379 1379 1380 1383 1386 1388 1390 1391 1393 1395 1395
1452 1447 1443 1438 1433 1427 1422 1417 1412 1407 1403 1398 1393 1388 1384 1380 1376 1372 1368 1365 1362 1360 1359 1358 1358 1359 1359 1360 1361 1361 1364 1365 1367 1368 1369 1372 1374 1377 1377 1380 1382 1383 1383
1445 1440 1435 1430 1424 1419 1414 1408 1403 1398 1393 1388 1383 1378 1373 1370 1366 1362 1358 1353 1350 1348 1346 1346 1346 1346 1347 1348 1349 1350 1351 1352 1354 1356 1357 1359 1361 1365 1368 1370 1372 1373 1372
1438 1433 1428 1422 1416 1410 1405 1399 1394 1388 1383 1378 1373 1368 1363 1359 1356 1352 1348 1345 1340 1337 1335 1334 1334 1334 1335 1335 1337 1340 1341 1342 1342 1344 1345 1346 1351 1355 1359 1361 1362 1362 1362
1431 1425 1419 1413 1407 1402 1396 1390 1385 1379 1373 1368 1363 1358 1353 1349 1346 1341 1338 1334 1329 1326 1325 1324 1323 1322 1324 1324 1324 1325 1327 1330 1333 1335 1334 1336 1341 1345 1348 1350 1352 1353 1353
1423 1417 1412 1406 1399 1393 1387 1381 1376 1370 1363 1358 1353 1348 1343 1338 1336 1331 1327 1322 1318 1316 1314 1313 1312 1311 1312 1314 1314 1313 1314 1316 1321 1324 1326 1329 1331 1335 1338 1341 1342 1343 1342
1415 1410 1404 1398 1392 1385 1379 1373 1367 1361 1354 1349 1343 1339 1334 1329 1326 1322 1318 1313 1308 1306 1304 1303 1303 1302 1302 1303 1304 1304 1304 1305 1309 1312 1316 1319 1322 1325 1329 1331 1332 1333 1333
1408 1402 1396 1390 1384 1377 1370 1364 1358 1351 1345 1339 1334 1329 1325 1321 1316 1313 1309 1305 1300 1297 1294 1293 1292 1293 1293 1293 1294 1294 1295 1298 1300 1303 1305 1308 1311 1314 1317 1320 1322 1323 1324
1400 1393 1387 1381 1375 1369 1362 1355 1349 1343 1336 1330 1325 1319 1316 1312 1308 1304 1300 1297 1294 1290 1286 1285 1284 1284 1284 1285 1285 1286 1288 1291 1292 1294 1296 1298 1301 1304 1307 1311 1313 1314 1314
1391 1384 1378 1371 1366 1360 1353 1346 1340 1334 1328 1322 1317 1311 1307 1303 1300 1296 1292 1289 1285 1282 1279 1277 1276 1276 1276 1276 1277 1279 1281 1283 1284 1286 1287 1290 1293 1296 1299 1301 1303 1305 1305
1383 1375 1369 1362 1356 1350 1345 1339 1332 1326 1321 1315 1310 1305 1300 1295 1291 1288 1284 1280 1277 1274 1272 1270 1269 1268 1268 1268 1269 1271 1273 1275 1277 1279 1280 1283 1287 1289 1291 1293 1294 1295 1295
1374 1367 1361 1354 1348 1341 1336 1331 1325 1319 1316 1310 1304 1299 1294 1288 1284 1282 1278 1273 1270 1267 1264 1262 1261 1261 1261 1261 1262 1264 1266 1268 1270 1272 1274 1277 1279 1282 1283 1285 1286 1287 1286
1366 1359 1353 1346 1340 1334 1327 1320 1316 1312 1307 1303 1298 1293 1287 1283 1278 1274 1270 1267 1263 1261 1259 1255 1254 1254 1254 1255 1256 1258 1259 1261 1263 1266 1268 1270 1272 1274 1276 1277 1278 1278 1278
1360 1352 1345 1339 1333 1327 1320 1314 1306 1301 1299 1294 1289 1285 1280 1275 1270 1266 1263 1259 1256 1254 1252 1250 1249 1248 1248 1249 1250 1252 1254 1256 1258 1260 1262 1264 1266 1267 1268 1269 1270 1270 1270
1353 1346 1339 1332 1326 1320 1314 1308 1302 1295 1289 1284 1281 1277 1272 1267 1263 1259 1256 1253 1249 1248 1246 1244 1243 1243 1243 1244 1245 1247 1248 1250 1252 1254 1256 1258 1259 1260 1261 1262 1262 1262 1262
1345 1338 1332 1326 1320 1314 1308 1302 1296 1290 1284 1278 1273 1269 1265 1261 1257 1253 1250 1247 1244 1242 1241 1240 1239 1239 1239 1240 1241 1242 1243 1245 1247 1249 1250 1252 1253 1254 1254 1255 1255 1255 1255
1338 1332 1326 1319 1313 1307 1301 1296 1290 1284 1279 1273 1268 1263 1259 1255 1250 1247 1245 1242 1240 1238 1236 1235 1235 1235 1235 1236 1236 1238 1239 1240 1242 1243 1244 1246 1246 1247 1248 1248 1248 1248 1247
1330 1324 1318 1313 1307 1301 1295 1290 1284 1279 1274 1268 1264 1259 1255 1251 1247 1243 1240 1238 1236 1233 1232 1231 1231 1231 1231 1232 1232 1233 1235 1236 1237 1238 1239 1240 1240 1241 1241 1242 1242 1241 1240
1324 1318 1312 1306 1300 1295 1289 1284 1279 1273 1268 1263 1258 1254 1250 1246 1243 1239 1236 1234 1232 1230 1229 1228 1227 1227 1228 1228 1229 1229 1230 1231 1232 1233 1234 1234 1235 1235 1235 1235 1235 1234 1233
1318 1312 1306 1300 1295 1289 1283 1278 1273 1268 1263 1258 1254 1249 1245 1242 1239 1236 1233 1231 1229 1227 1226 1225 1225 1224 1225 1225 1225 1226 1226 1227 1228 1228 1229 1229 1229 1229 1229 1228 1228 1227 1226
1312 1306 1300 1294 1289 1283 1278 1273 1268 1263 1258 1254 1249 1245 1241 1238 1235 1232 1230 1228 1226 1225 1224 1223 1222 1222 1222 1222 1222 1222 1223 1223 1223 1223 1223 1223 1223 1223 1223 1222 1221 1220 1219
1306 1300 1294 1289 1283 1278 1273 1268 1263 1258 1254 1249 1245 1241 1237 1234 1232 1229 1227 1225 1224 1222 1221 1221 1220 1219 1219 1219 1219 1219 1219 1219 1219 1218 1218 1218 1217 1217 1216 1216 1215 1214 1213
1300 1294 1289 1283 1278 1273 1268 1263 1258 1254 1249 1245 1241 1237 1234 1231 1229 1227 1225 1223 1222 1220 1219 1218 1218 1217 1216 1216 1215 1215 1215 1214 1214 1214 1213 1213 1212 1211 1210 1209 1208 1207 1206